RYR77G LBSF-LIBD

Flight info

Callsign RYR77G
Flight time 0h 56m
Altitude 34000
Route NAPET3S/09 NAPET T214 SIN DCT DOBAR DCT DIRES DCT KAPPO L612 DOLON
Aircraft A320/M-SDE3FGHIRWY/LB1

Departure

Time 2026-05-09 09:53
Airport Sofia Airport (LBSF)

Arrival

Time 2026-05-09 10:49
Airport Bari Karol Wojtyła International Airport (LIBD)
Time Latitude Longitude Altitude Speed Heading
2026-05-09 09:36 42.69005 23.41017 1746 ft 0 kts 162°
2026-05-09 09:48 42.68981 23.41027 1749 ft 11 kts 162°
2026-05-09 09:48 42.68976 23.41163 1748 ft 16 kts 62°
2026-05-09 09:48 42.68983 23.41175 1751 ft 2 kts 57°
2026-05-09 09:49 42.69007 23.41220 1749 ft 8 kts 43°
2026-05-09 09:49 42.69072 23.41218 1749 ft 12 kts 342°
2026-05-09 09:49 42.69165 23.41177 1746 ft 16 kts 341°
2026-05-09 09:49 42.69285 23.41168 1750 ft 20 kts 12°
2026-05-09 09:50 42.69429 23.41209 1749 ft 18 kts 11°
2026-05-09 09:50 42.69486 23.41334 1751 ft 19 kts 91°
2026-05-09 09:50 42.69470 23.41531 1753 ft 23 kts 95°
2026-05-09 09:50 42.69455 23.41765 1753 ft 27 kts 95°
2026-05-09 09:51 42.69439 23.42036 1753 ft 30 kts 94°
2026-05-09 09:51 42.69429 23.42232 1753 ft 32 kts 94°
2026-05-09 09:51 42.69414 23.42513 1753 ft 20 kts 95°
2026-05-09 09:51 42.69406 23.42704 1753 ft 20 kts 76°
2026-05-09 09:52 42.69506 23.42700 1752 ft 20 kts 290°
2026-05-09 09:52 42.69612 23.42428 1746 ft 35 kts 286°
2026-05-09 09:52 42.69654 23.41735 1749 ft 112 kts 275°
2026-05-09 09:52 42.69738 23.40396 1844 ft 162 kts 276°
2026-05-09 09:53 42.69924 23.38852 2524 ft 175 kts 290°
2026-05-09 09:53 42.70526 23.37356 2864 ft 193 kts 309°
2026-05-09 09:53 42.71418 23.35871 3253 ft 212 kts 308°
2026-05-09 09:53 42.72391 23.34213 3623 ft 236 kts 308°
2026-05-09 09:54 42.73453 23.32388 4220 ft 252 kts 308°
2026-05-09 09:54 42.74538 23.30517 5119 ft 257 kts 307°
2026-05-09 09:54 42.75650 23.28588 5997 ft 260 kts 307°
2026-05-09 09:54 42.76584 23.26468 6796 ft 266 kts 290°
2026-05-09 09:55 42.76846 23.23966 7521 ft 272 kts 265°
2026-05-09 09:55 42.76251 23.21521 8255 ft 278 kts 238°
2026-05-09 09:55 42.74871 23.19661 9039 ft 283 kts 216°
2026-05-09 09:55 42.73228 23.18162 9867 ft 285 kts 215°
2026-05-09 09:56 42.71566 23.16660 10392 ft 296 kts 216°
2026-05-09 09:56 42.69782 23.15041 10566 ft 319 kts 216°
2026-05-09 09:56 42.67875 23.13304 10829 ft 336 kts 216°
2026-05-09 09:56 42.65914 23.11511 11392 ft 342 kts 216°
2026-05-09 09:57 42.63925 23.09691 12028 ft 346 kts 216°
2026-05-09 09:57 42.61941 23.07874 12668 ft 350 kts 216°
2026-05-09 09:57 42.59909 23.06016 13317 ft 353 kts 216°
2026-05-09 09:57 42.57855 23.04139 13972 ft 356 kts 216°
2026-05-09 09:58 42.55795 23.02260 14535 ft 360 kts 216°
2026-05-09 09:58 42.53705 23.00354 15099 ft 363 kts 216°
2026-05-09 09:58 42.51590 22.98422 15660 ft 366 kts 216°
2026-05-09 09:58 42.49472 22.96487 16210 ft 369 kts 215°
2026-05-09 09:59 42.47358 22.94563 16759 ft 372 kts 215°
2026-05-09 09:59 42.45188 22.92593 17321 ft 376 kts 215°
2026-05-09 09:59 42.43008 22.90617 17886 ft 379 kts 214°
2026-05-09 09:59 42.40806 22.88623 18438 ft 382 kts 214°
2026-05-09 10:00 42.38594 22.86622 18951 ft 385 kts 215°
2026-05-09 10:00 42.36345 22.84587 19502 ft 388 kts 215°
2026-05-09 10:00 42.34116 22.82568 20037 ft 391 kts 215°
2026-05-09 10:00 42.31850 22.80519 20589 ft 393 kts 215°
2026-05-09 10:01 42.29561 22.78452 21130 ft 396 kts 216°
2026-05-09 10:01 42.27259 22.76374 21615 ft 399 kts 216°
2026-05-09 10:01 42.24943 22.74285 22104 ft 401 kts 216°
2026-05-09 10:01 42.22644 22.72211 22305 ft 400 kts 216°
2026-05-09 10:02 42.20322 22.70118 22439 ft 398 kts 216°
2026-05-09 10:02 42.18039 22.68064 22569 ft 397 kts 216°
2026-05-09 10:02 42.15740 22.66000 22702 ft 395 kts 216°
2026-05-09 10:02 42.13466 22.63962 22834 ft 394 kts 216°
2026-05-09 10:03 42.11229 22.61828 22973 ft 394 kts 222°
2026-05-09 10:03 42.09240 22.59236 23163 ft 401 kts 232°
2026-05-09 10:03 42.07579 22.56197 23539 ft 403 kts 239°
2026-05-09 10:03 42.06067 22.53033 23901 ft 406 kts 239°
2026-05-09 10:04 42.04520 22.49823 24271 ft 409 kts 239°
2026-05-09 10:04 42.02965 22.46609 24642 ft 411 kts 239°
2026-05-09 10:04 42.01391 22.43365 25004 ft 413 kts 239°
2026-05-09 10:04 41.99834 22.40160 25335 ft 415 kts 239°
2026-05-09 10:05 41.98268 22.36863 25687 ft 417 kts 242°
2026-05-09 10:05 41.97001 22.33351 25994 ft 418 kts 248°
2026-05-09 10:05 41.95821 22.29814 26327 ft 421 kts 248°
2026-05-09 10:05 41.94615 22.26211 26670 ft 423 kts 248°
2026-05-09 10:06 41.93399 22.22580 27017 ft 425 kts 247°
2026-05-09 10:06 41.92189 22.18984 27349 ft 427 kts 247°
2026-05-09 10:06 41.90961 22.15345 27686 ft 429 kts 247°
2026-05-09 10:06 41.89731 22.11705 28030 ft 431 kts 247°
2026-05-09 10:07 41.88487 22.08031 28409 ft 433 kts 247°
2026-05-09 10:07 41.87233 22.04330 28770 ft 435 kts 247°
2026-05-09 10:07 41.85982 22.00649 29223 ft 433 kts 247°
2026-05-09 10:07 41.84726 21.96958 29674 ft 433 kts 247°
2026-05-09 10:08 41.83484 21.93315 30131 ft 432 kts 247°
2026-05-09 10:08 41.82238 21.89656 30533 ft 431 kts 247°
2026-05-09 10:08 41.80993 21.86000 30926 ft 430 kts 247°
2026-05-09 10:08 41.79763 21.82393 31319 ft 429 kts 247°
2026-05-09 10:09 41.78526 21.78768 31717 ft 428 kts 247°
2026-05-09 10:09 41.77280 21.75121 32135 ft 427 kts 247°
2026-05-09 10:09 41.76053 21.71544 32556 ft 426 kts 247°
2026-05-09 10:09 41.74811 21.67925 32962 ft 425 kts 247°
2026-05-09 10:10 41.73574 21.64323 33382 ft 423 kts 247°
2026-05-09 10:10 41.72356 21.60785 33851 ft 421 kts 247°
2026-05-09 10:10 41.71124 21.57208 34053 ft 421 kts 247°
2026-05-09 10:11 41.68651 21.50026 34073 ft 430 kts 247°
2026-05-09 10:11 41.66135 21.42746 34071 ft 431 kts 247°
2026-05-09 10:12 41.63609 21.35480 34068 ft 431 kts 247°
2026-05-09 10:12 41.61083 21.28212 34062 ft 431 kts 247°
2026-05-09 10:13 41.58566 21.20995 34063 ft 430 kts 247°
2026-05-09 10:13 41.56039 21.13759 34066 ft 430 kts 247°
2026-05-09 10:14 41.53513 21.06526 34068 ft 430 kts 247°
2026-05-09 10:14 41.50983 20.99323 34069 ft 429 kts 247°
2026-05-09 10:15 41.48447 20.92146 34061 ft 429 kts 247°
2026-05-09 10:15 41.45895 20.84943 34091 ft 429 kts 247°
2026-05-09 10:16 41.43343 20.77745 34089 ft 428 kts 248°
2026-05-09 10:16 41.40820 20.70611 34102 ft 427 kts 248°
2026-05-09 10:17 41.38274 20.63447 34104 ft 427 kts 247°
2026-05-09 10:17 41.35724 20.56318 34083 ft 427 kts 247°
2026-05-09 10:18 41.33267 20.49181 34083 ft 424 kts 253°
2026-05-09 10:18 41.31681 20.41678 34088 ft 421 kts 257°
2026-05-09 10:19 41.30147 20.34183 34096 ft 420 kts 257°
2026-05-09 10:19 41.28602 20.26702 34101 ft 419 kts 257°
2026-05-09 10:20 41.27316 20.19195 34101 ft 414 kts 269°
2026-05-09 10:20 41.27243 20.11539 34094 ft 413 kts 271°
2026-05-09 10:21 41.27193 20.03914 34099 ft 412 kts 271°
2026-05-09 10:21 41.27146 19.96297 34098 ft 411 kts 271°
2026-05-09 10:22 41.27098 19.88700 34098 ft 411 kts 271°
2026-05-09 10:22 41.27040 19.81096 34108 ft 411 kts 271°
2026-05-09 10:23 41.26969 19.73585 34109 ft 407 kts 272°
2026-05-09 10:23 41.26897 19.66096 34109 ft 404 kts 272°
2026-05-09 10:24 41.26828 19.58634 34102 ft 403 kts 272°
2026-05-09 10:24 41.26757 19.51194 34103 ft 402 kts 272°
2026-05-09 10:25 41.26677 19.43755 34098 ft 401 kts 272°
2026-05-09 10:25 41.26590 19.36357 34115 ft 398 kts 272°
2026-05-09 10:26 41.26494 19.29046 34120 ft 397 kts 272°
2026-05-09 10:26 41.26446 19.25389 33856 ft 393 kts 272°
2026-05-09 10:26 41.26398 19.21747 33076 ft 395 kts 272°
2026-05-09 10:26 41.26348 19.18078 32186 ft 400 kts 271°
2026-05-09 10:27 41.26294 19.14358 31415 ft 402 kts 271°
2026-05-09 10:27 41.26237 19.10638 30791 ft 401 kts 271°
2026-05-09 10:27 41.26181 19.06992 30319 ft 397 kts 271°
2026-05-09 10:27 41.26125 19.03329 29711 ft 394 kts 271°
2026-05-09 10:28 41.26072 18.99722 29102 ft 391 kts 271°
2026-05-09 10:28 41.26019 18.96121 28513 ft 388 kts 271°
2026-05-09 10:28 41.25965 18.92520 27939 ft 385 kts 270°
2026-05-09 10:28 41.25910 18.89012 27390 ft 382 kts 270°
2026-05-09 10:29 41.25854 18.85490 26847 ft 380 kts 270°
2026-05-09 10:29 41.25797 18.81982 26316 ft 377 kts 270°
2026-05-09 10:29 41.25736 18.78509 25806 ft 375 kts 270°
2026-05-09 10:29 41.25676 18.75048 25342 ft 372 kts 271°
2026-05-09 10:30 41.25615 18.71666 24897 ft 369 kts 271°
2026-05-09 10:30 41.25553 18.68257 24441 ft 367 kts 271°
2026-05-09 10:30 41.25492 18.64867 23992 ft 365 kts 270°
2026-05-09 10:30 41.25429 18.61502 23526 ft 364 kts 270°
2026-05-09 10:31 41.25363 18.58144 23043 ft 363 kts 270°
2026-05-09 10:31 41.25297 18.54797 22565 ft 361 kts 270°
2026-05-09 10:31 41.25233 18.51504 22103 ft 359 kts 270°
2026-05-09 10:31 41.25167 18.48190 21634 ft 357 kts 270°
2026-05-09 10:32 41.25102 18.44918 21171 ft 355 kts 270°
2026-05-09 10:32 41.25033 18.41624 20690 ft 353 kts 271°
2026-05-09 10:32 41.24963 18.38371 20262 ft 350 kts 271°
2026-05-09 10:32 41.24895 18.35180 20081 ft 349 kts 271°
2026-05-09 10:33 41.24829 18.31970 20097 ft 350 kts 271°
2026-05-09 10:33 41.24763 18.28713 20097 ft 351 kts 271°
2026-05-09 10:33 41.24697 18.25491 20097 ft 351 kts 271°
2026-05-09 10:33 41.24627 18.22241 20098 ft 351 kts 271°
2026-05-09 10:34 41.24555 18.19005 20012 ft 349 kts 271°
2026-05-09 10:34 41.24410 18.12580 19034 ft 346 kts 271°
2026-05-09 10:34 41.24336 18.09414 18557 ft 345 kts 271°
2026-05-09 10:35 41.24260 18.06212 18022 ft 344 kts 271°
2026-05-09 10:35 41.24184 18.03078 17493 ft 342 kts 271°
2026-05-09 10:35 41.24107 17.99908 16967 ft 341 kts 271°
2026-05-09 10:35 41.24030 17.96767 16454 ft 339 kts 271°
2026-05-09 10:36 41.23951 17.93633 15961 ft 338 kts 271°
2026-05-09 10:36 41.23873 17.90517 15473 ft 337 kts 271°
2026-05-09 10:36 41.23797 17.87410 14986 ft 335 kts 271°
2026-05-09 10:36 41.23722 17.84317 14506 ft 334 kts 270°
2026-05-09 10:37 41.23645 17.81275 14062 ft 333 kts 270°
2026-05-09 10:37 41.23566 17.78203 13568 ft 332 kts 270°
2026-05-09 10:37 41.23486 17.75131 13069 ft 330 kts 270°
2026-05-09 10:37 41.23406 17.72086 12588 ft 328 kts 270°
2026-05-09 10:38 41.23326 17.69062 12125 ft 326 kts 270°
2026-05-09 10:38 41.23243 17.66087 11680 ft 323 kts 270°
2026-05-09 10:38 41.23160 17.63096 11241 ft 322 kts 270°
2026-05-09 10:38 41.23078 17.60157 10796 ft 320 kts 270°
2026-05-09 10:39 41.22997 17.57197 10357 ft 319 kts 270°
2026-05-09 10:39 41.22919 17.54263 10015 ft 315 kts 270°
2026-05-09 10:39 41.22842 17.51404 9884 ft 303 kts 270°
2026-05-09 10:39 41.22763 17.48656 9750 ft 293 kts 270°
2026-05-09 10:40 41.22685 17.46019 9580 ft 284 kts 270°
2026-05-09 10:40 41.22609 17.43396 9265 ft 281 kts 270°
2026-05-09 10:40 41.22534 17.40793 8936 ft 280 kts 270°
2026-05-09 10:40 41.22461 17.38260 8585 ft 279 kts 270°
2026-05-09 10:41 41.22385 17.35668 8243 ft 278 kts 270°
2026-05-09 10:41 41.22308 17.33101 7912 ft 277 kts 270°
2026-05-09 10:41 41.22231 17.30551 7571 ft 277 kts 270°
2026-05-09 10:41 41.22152 17.28013 7250 ft 276 kts 270°
2026-05-09 10:42 41.22072 17.25466 6933 ft 275 kts 270°
2026-05-09 10:42 41.21995 17.22932 6609 ft 274 kts 270°
2026-05-09 10:42 41.21919 17.20416 6293 ft 273 kts 270°
2026-05-09 10:42 41.21840 17.17893 5972 ft 271 kts 270°
2026-05-09 10:43 41.21759 17.15424 5792 ft 264 kts 270°
2026-05-09 10:43 41.21680 17.13014 5664 ft 256 kts 270°
2026-05-09 10:43 41.21604 17.10685 5537 ft 248 kts 270°
2026-05-09 10:43 41.21529 17.08443 5408 ft 238 kts 270°
2026-05-09 10:44 41.21368 17.06298 5288 ft 230 kts 261°
2026-05-09 10:44 41.21056 17.04266 5048 ft 226 kts 261°
2026-05-09 10:44 41.20744 17.02215 4731 ft 225 kts 262°
2026-05-09 10:44 41.20435 17.00189 4261 ft 223 kts 261°
2026-05-09 10:45 41.20082 16.98197 3781 ft 223 kts 253°
2026-05-09 10:46 41.17924 16.90534 2372 ft 221 kts 253°
2026-05-09 10:46 41.17388 16.88623 2053 ft 221 kts 254°
2026-05-09 10:46 41.16856 16.86730 1843 ft 210 kts 254°
2026-05-09 10:46 41.16358 16.84977 1505 ft 197 kts 253°
2026-05-09 10:47 41.15890 16.83326 1184 ft 185 kts 253°
2026-05-09 10:47 41.15602 16.82314 1025 ft 168 kts 253°
2026-05-09 10:47 41.15215 16.80948 785 ft 147 kts 249°
2026-05-09 10:47 41.14862 16.79699 595 ft 142 kts 253°
2026-05-09 10:48 41.14541 16.78482 370 ft 138 kts 255°
2026-05-09 10:48 41.14194 16.77296 211 ft 138 kts 255°
2026-05-09 10:48 41.13881 16.76170 151 ft 114 kts 252°
2026-05-09 10:48 41.13695 16.75499 153 ft 52 kts 252°
2026-05-09 10:49 41.13574 16.75059 148 ft 45 kts 248°
2026-05-09 10:49 41.13476 16.74761 148 ft 24 kts 218°
2026-05-09 10:49 41.13382 16.74804 156 ft 13 kts 120°
2026-05-09 10:49 41.13347 16.74932 158 ft 19 kts 84°
2026-05-09 10:50 41.13406 16.75143 158 ft 30 kts 69°
2026-05-09 10:50 41.13485 16.75423 158 ft 35 kts 68°
2026-05-09 10:50 41.13574 16.75731 158 ft 32 kts 70°
2026-05-09 10:50 41.13641 16.75998 158 ft 25 kts 90°
2026-05-09 10:51 41.13565 16.76102 158 ft 15 kts 139°
2026-05-09 10:51 41.13572 16.76238 158 ft 17 kts 70°
2026-05-09 10:51 41.13618 16.76399 158 ft 19 kts 69°
2026-05-09 10:51 41.13596 16.76438 162 ft 1 kts 172°
2026-05-09 10:52 41.13573 16.76449 159 ft 6 kts 161°
2026-05-09 10:52 41.13551 16.76460 159 ft 0 kts 159°